GFSSGP_700_spd_000.txt.gz
Wind_Speed
10 10 9 9 6 7 8 3 1 5 5 6 9 12 13 16 18 15 23 21 21 20 19 22 24 26 23 22 21 22 21 20 20 20 18 17 18 18 19 19 19 20 21 20 22 22 23 24 25
13 12 9 7 8 11 3 2 7 9 8 10 12 14 16 21 26 23 20 21 20 21 21 22 23 23 21 19 19 22 23 22 21 21 22 22 24 22 22 22 21 20 21 22 22 23 24 25 26
12 11 11 7 13 14 4 5 8 7 11 13 12 14 20 25 23 17 20 19 21 20 20 19 22 21 20 19 21 22 24 26 27 27 26 26 26 27 25 26 23 23 23 23 24 25 24 25 27
13 14 13 13 14 13 9 5 7 2 3 12 17 16 20 20 16 21 19 17 22 21 19 19 20 20 19 20 20 21 23 27 30 29 27 25 26 24 24 26 24 24 24 24 24 24 25 25 26
14 14 17 18 19 14 13 9 8 6 9 9 14 19 17 19 21 21 17 23 23 20 20 20 21 15 18 19 19 21 23 26 30 32 28 24 23 21 20 22 22 24 25 25 24 24 25 23 25
17 16 14 18 19 14 13 12 10 11 10 10 12 18 22 20 20 19 19 23 18 18 20 20 21 15 16 20 22 24 26 28 31 34 30 24 21 22 23 24 24 27 27 26 25 24 24 26 26
19 17 19 20 19 19 16 11 13 18 18 20 20 18 15 14 17 22 25 25 19 19 20 20 19 16 16 19 23 26 28 30 31 34 32 27 25 26 26 26 25 24 25 24 24 24 25 26 28
23 22 24 23 24 22 18 20 23 22 20 22 19 14 20 20 25 24 25 25 21 18 20 19 20 17 17 19 23 27 29 31 32 35 35 30 28 26 24 22 21 20 21 22 22 23 25 27 30
26 28 31 27 25 25 20 23 24 26 30 28 25 23 21 24 28 31 29 21 21 18 17 16 17 19 19 20 23 28 30 31 33 36 36 31 26 24 22 18 17 18 19 20 21 21 22 25 28
33 39 38 31 26 27 27 32 28 31 30 34 32 25 20 29 27 25 21 17 18 17 17 14 16 20 22 23 24 27 30 32 34 38 36 28 24 22 21 20 20 19 18 17 19 19 20 21 21
40 45 37 31 28 35 37 36 34 35 38 33 32 25 21 27 26 30 20 18 19 17 18 17 17 21 23 25 25 28 30 33 35 38 32 28 25 22 21 21 19 17 15 16 18 18 21 21 17
45 44 38 32 32 40 42 41 36 37 42 34 28 23 23 27 29 32 28 25 20 21 21 20 19 20 21 26 27 28 31 34 36 36 31 26 24 21 20 20 20 19 20 21 20 22 22 22 20
48 43 40 38 37 36 42 42 39 42 36 31 28 24 23 25 25 26 28 27 25 25 23 20 21 19 21 24 27 29 32 34 36 33 28 26 22 20 22 20 23 22 21 21 19 20 20 21 20
45 40 39 37 38 41 42 42 39 42 35 32 32 29 25 26 27 27 28 28 25 24 25 21 19 20 22 24 27 29 33 34 35 30 29 27 23 24 22 21 24 22 22 22 17 17 19 19 22
40 42 40 41 37 45 37 43 44 44 37 36 32 29 25 28 28 26 28 26 22 22 26 23 22 22 23 25 27 30 34 34 31 30 30 26 24 22 20 22 20 21 21 16 16 16 17 20 21
35 40 39 37 40 38 32 45 46 39 34 32 28 25 26 27 27 27 27 28 24 26 27 24 24 23 24 26 28 31 32 32 27 28 28 24 21 20 21 21 18 19 16 16 17 19 21 19 20
41 40 39 41 36 35 40 46 47 32 31 29 28 25 23 23 25 29 28 28 21 22 26 26 26 25 26 27 28 31 30 29 25 27 29 25 21 18 19 20 17 16 16 18 19 19 18 19 20
32 37 43 46 44 38 39 45 42 32 32 25 24 22 23 27 22 22 24 24 23 25 28 29 28 27 27 27 28 30 29 26 23 27 25 21 19 17 20 19 16 16 17 18 18 17 16 17 19
41 39 43 45 41 37 42 40 39 34 33 27 21 24 24 22 15 17 21 22 28 25 28 31 28 28 28 27 29 28 27 23 23 24 22 18 14 17 18 15 15 14 14 15 15 15 16 19 20
45 42 48 47 38 36 41 41 41 34 28 25 25 21 17 17 17 16 20 23 28 24 21 23 26 28 27 28 28 26 24 20 21 20 18 14 16 14 17 16 10 11 12 11 11 11 16 19 19
48 45 47 45 36 38 37 45 41 30 24 27 22 14 13 17 19 21 24 24 28 26 18 16 26 26 26 27 24 24 22 19 20 19 17 18 16 13 12 6 7 8 5 5 6 12 17 16 17
46 47 43 37 29 24 14 11 28 35 25 28 21 19 17 18 18 20 23 27 19 14 16 18 24 23 25 23 21 22 20 18 19 18 17 17 12 11 5 5 4 3 0 3 11 18 16 14 15
46 36 35 28 29 28 30 22 31 31 28 28 24 25 23 25 21 23 16 11 10 13 15 17 19 21 22 19 21 19 16 16 17 16 16 19 10 7 3 4 4 5 6 10 16 13 10 10 11
35 27 29 30 27 19 33 20 25 32 30 19 9 4 10 12 13 13 11 8 10 13 14 15 18 19 17 19 18 16 14 15 15 15 17 10 6 3 4 4 8 8 8 12 15 12 9 10 15
18 19 3 4 5 7 22 14 35 17 5 9 10 12 8 7 11 9 9 9 10 12 12 14 15 16 17 16 13 12 11 11 14 13 9 9 3 7 7 8 10 10 8 10 11 9 10 14 14
41 35 14 6 3 5 19 13 35 26 23 12 17 11 10 9 12 9 10 9 9 10 11 12 13 14 14 10 9 9 8 9 8 10 8 3 6 10 10 12 13 11 10 10 9 9 12 14 13
39 39 36 17 12 4 5 18 34 30 20 9 13 13 13 14 7 7 10 10 10 9 9 12 11 10 9 7 7 6 5 5 7 9 7 4 8 10 12 14 14 12 10 10 8 11 12 14 15
37 33 29 29 6 3 9 13 17 4 10 9 12 8 10 14 5 10 9 9 10 11 11 8 8 8 6 7 6 3 2 4 6 8 6 5 9 11 13 14 12 10 10 10 10 10 10 13 14
39 27 23 23 16 5 1 9 19 20 11 12 12 13 11 8 9 9 6 10 12 13 9 7 7 6 5 7 5 1 1 3 9 8 1 5 10 11 11 12 10 10 9 10 10 8 10 9 11
50 47 36 21 11 20 4 11 9 0 5 4 5 6 14 6 9 5 7 9 11 11 8 6 6 5 5 5 2 0 2 6 8 5 4 8 11 13 14 13 11 10 10 11 12 14 10 11 12

GFSSGP_700_spd_006.txt.gz
Wind_Speed
10 9 7 7 2 7 10 6 8 4 3 5 5 6 5 9 9 13 18 14 17 13 13 10 9 12 14 17 16 13 14 14 15 17 17 16 14 15 16 17 18 18 18 19 20 19 20 22 23
12 10 9 7 7 12 11 11 7 5 6 8 10 10 11 13 13 16 16 14 17 12 13 12 9 11 13 15 9 8 11 13 15 16 18 19 16 14 16 19 20 20 20 20 21 21 21 21 22
12 11 7 6 13 14 7 9 7 5 6 8 5 9 10 9 13 14 14 17 16 14 15 14 13 11 15 11 6 7 9 12 15 17 18 20 20 17 15 14 18 20 21 21 22 22 23 23 23
12 12 12 12 14 11 11 8 5 5 7 8 10 9 13 14 14 17 18 16 14 15 17 15 14 11 15 11 7 8 9 11 14 17 19 22 23 21 18 15 14 15 15 18 22 24 24 25 22
13 11 14 17 18 15 12 14 12 10 10 8 10 9 11 14 15 16 15 13 15 18 22 20 16 12 14 14 11 10 12 13 16 18 20 22 25 25 22 20 18 18 19 19 17 19 22 25 25
14 11 17 20 19 16 14 13 14 11 10 11 12 11 13 17 18 17 14 13 16 19 23 23 17 12 13 13 13 12 14 15 18 19 20 23 27 28 24 21 20 20 21 21 23 24 24 23 24
18 16 20 20 22 19 15 10 13 12 11 10 13 14 12 10 19 20 19 18 17 21 25 26 19 13 13 12 13 13 15 16 19 22 24 25 29 30 24 20 19 19 20 22 24 25 24 24 25
21 19 22 22 24 23 16 10 9 9 13 16 17 13 12 16 24 24 21 20 17 22 24 27 20 14 14 12 11 13 15 17 20 23 25 26 29 30 25 21 20 19 18 18 20 22 23 24 26
21 21 25 25 24 24 18 16 16 22 23 21 17 23 23 30 29 25 24 22 19 20 18 18 19 15 16 13 12 13 14 15 19 22 25 26 29 30 25 22 21 18 18 18 20 21 22 23 25
26 27 33 30 28 30 26 25 23 23 23 25 24 23 21 25 26 29 25 21 22 20 17 16 20 18 18 16 14 14 16 16 18 22 26 28 29 30 26 25 21 18 18 18 17 19 21 21 22
31 47 39 37 33 31 33 32 27 30 29 26 25 27 27 28 27 26 24 22 20 22 23 18 21 22 19 18 15 16 17 18 20 23 27 29 30 31 29 27 22 19 19 19 19 18 18 19 19
43 45 38 39 41 34 34 33 33 35 37 31 30 27 32 29 28 25 23 23 21 20 24 25 26 24 22 20 19 19 18 19 22 23 28 31 31 31 28 27 25 22 20 18 19 20 22 24 25
47 42 37 38 36 37 34 37 39 42 41 32 34 34 32 33 31 27 27 26 23 22 23 24 25 28 26 24 24 20 20 22 24 25 29 31 32 31 30 28 26 23 20 18 19 17 19 21 21
41 41 42 40 37 35 35 39 38 43 42 37 35 35 30 29 32 29 30 28 26 23 21 25 24 25 31 27 26 23 23 25 26 28 30 31 31 31 30 30 25 23 21 20 18 16 18 20 20
41 40 42 35 34 39 32 51 45 45 43 41 36 31 30 31 25 24 27 26 26 24 24 23 25 26 31 30 26 25 27 28 29 30 31 31 32 31 30 27 24 23 22 21 19 17 19 17 18
34 41 49 42 34 30 33 62 43 32 33 35 29 31 32 33 31 24 22 24 26 26 25 26 21 24 30 34 29 27 30 30 30 30 32 32 32 29 28 26 23 22 22 23 20 20 17 16 15
40 47 46 44 42 39 37 59 45 34 31 28 33 38 39 39 37 24 22 24 25 26 26 24 21 25 27 33 33 30 32 31 31 30 31 31 30 28 27 25 22 22 22 20 19 19 18 17 14
42 37 40 45 37 37 38 47 39 36 39 38 36 40 44 42 39 25 24 25 27 28 28 25 27 26 27 29 34 34 33 32 31 31 31 30 28 27 25 25 23 23 22 22 21 20 19 20 19
38 36 42 37 35 37 38 43 45 41 39 39 36 35 39 42 34 27 25 25 21 20 20 22 27 29 27 25 29 34 33 32 30 31 29 29 26 26 25 24 23 21 24 23 20 18 17 19 19
37 40 42 38 35 32 35 39 39 37 39 40 40 38 36 37 29 21 28 25 20 19 21 23 26 27 24 22 29 34 32 29 31 30 29 28 26 25 24 23 23 22 15 9 12 15 18 19 18
43 42 39 36 31 28 30 38 38 38 39 38 36 33 36 32 22 16 20 21 21 22 22 25 28 26 21 22 29 29 28 28 28 28 27 25 25 25 25 22 18 10 10 11 12 15 17 18 16
46 36 32 30 28 33 25 32 34 31 34 33 33 30 29 27 22 16 17 18 18 19 25 24 25 24 21 23 24 24 25 26 26 25 25 25 26 27 23 15 12 8 8 9 8 8 11 13 15
42 26 28 27 28 28 31 26 39 31 34 31 26 27 27 24 25 19 20 23 25 25 27 29 23 16 17 19 20 22 23 22 23 22 22 24 25 18 12 10 7 5 4 1 4 6 9 12 13
32 23 22 21 22 22 29 31 37 32 32 25 18 15 14 18 21 21 25 26 25 25 25 18 12 13 14 16 19 19 19 19 18 18 22 20 17 14 9 7 3 0 2 7 6 7 8 9 11
36 31 14 14 15 14 20 17 32 23 21 21 12 7 6 13 15 14 13 13 17 18 15 11 12 12 13 16 16 17 16 13 15 16 15 13 9 5 6 3 5 4 4 6 4 2 4 7 11
47 40 21 15 12 14 10 11 17 16 18 10 12 9 8 16 16 11 8 9 12 13 10 8 9 12 13 14 14 12 10 12 12 9 12 7 2 4 3 5 6 5 5 4 3 2 3 8 10
42 41 35 19 6 8 11 14 22 17 16 13 9 5 10 18 16 13 11 13 12 10 6 7 8 10 11 10 8 7 9 10 8 9 9 4 2 3 5 6 6 7 6 4 2 2 5 7 9
40 38 31 25 14 15 9 14 17 13 5 15 11 7 15 16 17 15 9 12 11 10 7 7 8 7 7 6 6 7 8 9 9 10 5 1 2 4 5 7 7 6 5 3 4 5 5 6 9
37 41 32 27 16 8 4 5 11 12 7 6 6 5 18 14 18 9 12 12 11 10 8 7 6 6 5 5 4 5 7 8 9 5 3 4 5 6 7 7 6 4 4 5 4 4 5 5 7
39 31 37 26 20 24 12 12 5 4 3 7 10 12 12 18 12 10 13 9 11 9 8 6 5 6 4 4 3 3 4 4 2 1 3 6 8 6 6 6 5 5 6 6 8 4 5 6 7

GFSSGP_700_spd_009.txt.gz
Wind_Speed
10 8 8 6 5 8 15 13 10 5 5 4 4 4 6 9 10 9 16 15 11 15 13 14 12 10 11 15 15 13 11 11 12 13 15 17 17 15 16 18 18 17 18 20 20 20 21 22 21
10 10 8 6 10 19 19 12 9 7 6 7 8 9 10 12 9 8 7 13 14 14 12 14 14 10 11 14 13 10 9 10 12 14 15 17 18 17 15 16 18 20 21 21 22 22 21 21 22
12 11 5 8 18 19 11 8 10 4 7 5 6 7 9 7 7 7 14 17 16 15 12 16 15 13 11 13 12 8 7 9 11 13 15 18 20 20 18 17 16 16 19 20 22 22 22 22 22
11 11 11 15 19 15 14 5 8 8 9 8 8 9 9 9 9 12 19 21 19 16 13 16 17 15 11 13 12 9 8 9 10 12 15 18 21 23 24 19 17 17 17 18 19 19 22 24 22
12 10 16 19 20 18 14 15 14 12 12 13 10 11 12 7 15 19 23 25 22 18 15 16 19 18 12 11 12 11 11 11 10 12 15 17 20 22 25 23 20 18 17 19 20 16 18 20 24
12 12 20 22 22 19 18 15 15 16 16 15 14 12 12 13 8 10 20 21 23 19 20 20 22 21 15 12 12 12 11 12 12 14 16 18 18 21 24 22 21 19 18 19 21 20 22 24 26
18 18 22 22 22 20 14 15 16 16 16 16 9 10 15 10 13 20 15 19 17 16 22 25 21 23 18 14 13 13 12 12 13 15 18 21 21 22 24 25 20 20 20 20 20 22 26 27 28
20 20 26 27 25 25 20 13 14 15 16 11 15 19 15 14 17 21 19 20 18 18 20 21 20 21 22 16 17 15 14 13 14 16 19 21 23 24 25 26 24 22 20 19 20 20 20 24 27
18 25 30 28 26 26 21 22 20 17 17 17 19 22 22 23 22 19 19 18 19 19 21 22 20 16 22 21 19 19 16 15 16 18 19 21 24 26 27 30 26 24 22 20 20 21 22 21 22
27 32 33 28 26 26 25 26 25 26 24 24 26 23 22 20 22 22 23 25 21 22 22 23 23 22 19 25 23 20 20 19 18 18 20 21 25 27 27 29 27 24 22 20 21 21 20 20 21
32 41 33 32 30 31 36 35 32 35 35 29 29 26 24 25 24 25 25 25 24 21 22 27 29 24 24 25 27 21 24 23 20 19 21 25 27 30 30 31 30 24 23 21 23 20 19 21 20
37 40 38 39 38 39 43 42 41 40 37 31 31 29 26 26 26 25 25 25 23 23 23 28 30 28 27 27 30 28 26 25 23 22 23 26 28 32 29 29 27 29 24 25 23 20 21 19 21
46 46 44 46 45 44 41 45 44 43 36 35 33 33 30 29 28 28 26 26 25 26 24 22 26 29 26 26 30 32 28 28 25 26 28 27 29 33 31 31 29 27 25 23 23 21 21 19 18
48 48 48 47 47 44 45 48 42 39 37 39 35 37 35 31 30 27 26 26 25 26 27 27 28 26 27 27 31 32 31 30 27 28 31 32 30 33 30 30 29 27 26 23 23 21 21 20 19
48 52 54 53 46 45 39 48 51 43 39 41 39 38 34 30 28 27 26 27 27 27 30 32 27 29 27 28 30 32 35 31 29 30 31 32 34 33 30 28 27 26 26 22 22 22 21 21 19
45 46 52 55 49 46 42 56 45 38 38 38 31 32 37 32 29 30 28 31 35 29 31 30 30 32 29 30 32 33 35 35 33 33 34 34 33 32 31 28 26 25 26 24 22 23 21 21 19
41 50 55 48 42 44 45 54 47 37 37 39 40 37 32 32 32 32 33 34 35 30 29 29 31 34 26 27 28 31 34 37 36 36 35 35 34 34 32 28 25 24 24 25 26 24 22 21 18
51 48 47 50 44 40 44 50 46 40 36 37 36 38 39 39 38 35 33 31 34 32 30 31 34 30 28 27 29 32 34 35 39 37 35 34 33 33 32 28 26 24 25 25 25 25 25 23 21
44 37 42 45 40 34 38 42 46 37 37 37 40 41 40 40 34 33 31 29 30 31 33 28 29 30 29 29 31 29 29 32 37 36 36 32 32 33 29 27 26 25 25 24 25 25 24 23 22
43 43 46 42 36 33 35 37 36 37 40 40 42 39 37 38 37 32 27 24 29 30 25 21 21 25 27 32 27 27 27 32 35 35 35 32 32 30 26 26 26 26 24 19 15 13 14 14 15
45 44 43 41 32 30 29 41 41 38 40 37 38 38 38 37 33 28 26 24 28 27 23 21 22 27 32 33 30 25 26 29 30 30 31 32 28 25 26 26 23 19 17 14 14 14 15 16 17
48 42 37 31 29 32 29 33 37 34 35 34 33 32 32 29 26 25 20 29 23 24 26 24 27 29 32 30 25 23 22 25 27 25 27 27 26 24 24 17 14 13 10 11 12 14 15 16 15
54 34 33 31 33 32 32 29 33 29 32 32 31 29 29 28 25 21 19 24 22 22 22 25 24 24 24 24 20 17 19 23 24 26 24 22 21 20 18 12 9 7 6 5 3 2 4 8 10
36 34 32 29 30 27 31 31 43 31 29 25 21 18 20 20 20 19 26 23 21 22 23 24 26 19 15 15 15 17 18 20 23 19 19 18 17 13 8 7 6 2 1 4 4 4 5 8 10
38 34 22 21 23 21 26 27 36 24 20 22 22 15 8 10 19 26 22 20 21 22 21 20 14 11 12 13 14 17 18 17 15 15 15 15 12 7 4 5 3 2 3 3 2 2 1 6 9
46 47 27 26 11 18 29 23 27 17 15 14 11 12 9 11 18 17 15 13 12 11 12 10 8 11 11 12 14 15 13 13 12 10 11 17 7 5 3 3 4 2 2 2 1 2 1 5 9
55 50 51 28 29 15 21 15 16 16 13 13 10 11 13 13 15 14 14 13 11 12 11 8 9 8 10 10 11 11 9 8 10 9 12 10 4 3 3 6 5 2 1 1 1 1 3 6 7
54 48 42 43 23 14 17 11 16 6 8 8 14 11 14 14 17 18 14 11 13 13 10 8 8 7 6 9 9 7 7 6 9 11 9 5 2 3 5 5 4 3 1 2 2 4 4 6 6
54 46 48 38 30 14 12 15 4 7 10 6 13 13 13 16 20 17 14 13 13 11 9 7 7 5 7 7 4 4 5 6 7 5 3 3 3 5 7 6 6 4 2 2 3 3 4 5 6
48 45 50 31 29 30 16 9 6 3 6 8 4 12 16 19 18 14 12 14 12 11 6 7 5 5 4 3 3 1 4 4 2 3 2 4 5 6 8 5 6 4 3 4 3 2 3 5 4

GFSSGP_700_spd_015.txt.gz
Wind_Speed
8 6 7 7 7 7 11 2 16 16 8 13 7 5 7 7 5 1 8 5 14 17 20 22 17 11 11 11 11 13 13 13 12 13 14 16 17 19 21 21 19 16 15 13 15 17 17 18 18
9 9 9 8 7 9 11 10 6 9 9 12 11 7 1 7 3 5 2 7 9 14 19 22 16 11 11 12 12 12 13 13 12 14 14 15 17 19 21 24 24 21 17 16 15 16 19 19 19
9 9 12 6 10 14 8 5 12 17 8 16 9 8 4 6 1 7 11 13 9 19 19 18 15 11 12 12 12 10 11 11 11 12 13 14 16 18 21 22 25 25 23 17 17 16 16 17 19
9 12 13 14 16 12 18 19 18 7 11 13 8 9 3 7 9 10 14 16 15 23 19 14 15 14 13 13 12 10 9 8 9 10 10 12 14 17 19 20 21 24 25 23 18 16 16 16 15
12 14 14 14 17 15 10 8 22 15 10 14 10 18 10 9 6 10 16 20 25 23 19 21 9 15 18 16 14 12 9 9 8 9 10 11 13 15 19 20 19 21 24 22 21 17 15 18 17
16 15 14 19 20 13 12 14 20 13 13 14 3 9 5 4 9 10 14 21 19 22 21 15 19 13 15 20 19 15 12 11 10 11 11 12 13 15 19 21 19 20 23 23 20 19 17 16 20
16 19 22 19 18 19 19 18 10 11 6 11 7 5 4 10 10 17 11 18 22 20 21 18 20 22 20 23 22 18 16 14 13 15 15 15 15 16 19 22 21 22 24 25 19 18 17 17 17
20 24 26 24 20 24 16 19 13 15 9 8 11 1 6 13 17 25 14 14 11 21 21 22 22 28 27 23 23 20 18 17 16 17 17 18 17 18 20 23 23 22 24 25 20 18 18 18 18
24 32 32 30 31 33 21 20 14 18 15 20 16 12 12 17 18 18 13 14 10 21 27 26 25 24 31 25 22 23 22 21 20 19 19 20 19 19 21 23 23 26 25 25 22 21 20 19 19
28 43 50 46 35 25 19 23 27 21 25 27 19 35 29 17 12 24 30 21 15 15 27 29 27 26 30 31 26 26 25 24 23 22 20 21 21 21 22 23 25 27 29 26 24 21 20 20 20
31 46 42 37 33 24 27 30 32 32 31 26 25 30 33 28 27 33 30 30 34 16 27 31 29 28 31 34 32 25 27 26 24 25 24 22 23 22 24 25 26 28 32 29 26 21 17 17 17
34 40 37 36 33 30 32 28 35 37 35 33 34 31 32 35 32 32 34 27 31 25 26 37 34 33 27 32 34 25 26 26 24 25 25 25 25 24 25 26 27 29 31 30 28 23 19 15 14
43 42 36 34 32 31 28 32 34 39 36 36 41 43 38 38 33 37 37 35 35 28 29 31 34 30 29 34 38 32 27 25 25 26 26 26 27 26 26 27 27 29 32 31 29 26 21 18 15
44 38 37 35 35 34 38 39 39 42 41 45 46 46 40 43 43 37 38 37 37 35 32 36 33 30 32 36 40 38 27 24 26 25 25 26 29 29 27 27 28 28 31 32 29 26 23 19 18
45 44 41 46 46 45 38 50 54 46 43 47 43 46 46 44 43 45 39 39 34 32 32 33 34 36 32 37 41 38 28 29 27 26 26 28 31 31 30 28 28 28 29 29 27 24 23 20 19
33 39 46 53 47 47 36 69 52 46 49 52 51 48 45 47 46 37 37 37 32 29 30 35 37 34 36 36 39 37 32 32 29 29 29 30 34 32 33 30 28 30 31 30 27 24 24 21 21
35 39 46 57 51 44 30 59 48 48 50 51 49 44 41 46 46 38 32 39 35 36 40 42 45 40 35 36 38 36 33 33 34 33 33 35 36 35 35 31 30 32 31 30 26 24 24 23 23
38 36 48 56 34 29 38 53 47 43 47 46 46 46 44 44 44 34 34 38 38 35 41 42 44 39 34 34 34 36 35 33 35 37 34 39 38 36 33 30 32 32 31 27 25 25 25 23 22
40 33 41 40 37 38 49 45 43 43 42 41 40 40 37 35 31 39 37 33 36 36 36 35 33 31 34 33 34 36 35 33 36 38 37 39 35 32 29 30 31 28 27 27 26 26 25 23 21
44 44 43 33 28 32 38 37 37 39 40 37 35 37 41 42 41 36 35 34 38 41 31 29 32 31 33 30 30 32 32 34 36 33 35 33 26 24 27 26 28 27 26 24 22 19 18 18 17
42 46 41 38 29 36 36 42 39 42 43 40 40 38 38 38 36 36 35 27 24 36 40 40 27 28 32 27 29 32 30 32 34 34 27 18 20 24 24 25 25 23 22 19 17 16 14 14 14
42 34 33 34 30 34 26 29 41 40 39 33 29 33 34 34 37 35 31 27 23 26 22 22 25 31 28 28 29 30 31 31 31 24 22 20 22 24 22 23 23 21 16 13 12 12 12 13 14
46 28 33 28 35 38 39 28 43 28 35 32 35 29 31 35 33 32 30 25 26 19 19 21 26 27 30 28 30 29 28 24 22 19 17 20 21 21 22 21 16 12 11 7 7 7 7 6 9
32 28 33 34 35 20 39 35 46 39 34 37 31 27 28 22 22 19 21 24 25 22 23 23 23 21 23 26 26 21 21 20 15 15 18 19 19 20 18 14 10 9 5 2 4 3 3 4 2
26 33 12 14 14 16 31 27 41 41 36 32 25 21 20 21 17 13 20 15 17 18 19 18 15 16 18 17 17 18 14 10 15 14 17 17 17 15 13 9 7 7 4 3 5 5 3 1 2
29 31 17 13 8 19 30 13 29 23 24 29 23 21 21 15 11 11 17 18 15 13 16 17 18 14 13 13 11 9 11 15 14 15 15 14 12 10 8 6 5 4 4 5 3 2 1 2 4
34 38 42 33 25 17 17 29 37 33 24 19 20 24 19 17 13 11 16 14 15 17 15 12 9 9 9 7 8 11 13 12 12 13 12 10 8 7 5 3 5 5 4 3 3 2 1 3 4
37 35 19 34 12 12 10 28 25 20 20 14 13 21 20 19 12 6 9 10 11 9 8 9 8 6 6 7 8 10 12 11 10 9 8 5 3 3 3 3 5 4 2 3 3 2 4 4 3
22 40 35 23 30 9 7 17 29 20 16 17 15 20 22 16 9 9 8 10 9 7 6 7 5 4 6 7 8 10 8 8 7 6 4 4 2 3 2 4 5 3 1 2 4 3 2 3 6
27 27 38 22 28 26 23 21 9 6 10 17 16 20 21 15 7 9 11 10 7 6 7 5 4 5 6 7 9 6 5 6 7 5 3 4 3 4 4 5 4 3 6 3 4 3 3 4 3